Content
SEND FEEDBACK

Daily
Averages
Monthly
Summary
Canada

BRANTFORD, ONTARIO


Home > North America > Canada > Ontario
Elevation: 815 feet     Latitude: 43 08N     Longitude: 080 21W

WEATHER
 
SELECT A DAY
Number of Records: 133,424;   Date Range: 5/15/00 - 12/17/14
 
SHARE

PRINT THIS DATA

[ ← Previous Day ]
WEATHER ALMANAC - NOVEMBER 12, 2013
[ Next Day → ]
[ °C ]   °F
Weather ElementAverageHighLow
Temperature27.2 °F31.8 °F (12:00 pm)22 °F (7:00 am)
Dewpoint20.6 °F23 °F (2:00 am)16 °F (7:00 am)
Humidity75.4 %86 % (8:00 pm)51 % (1:00 pm)
Barometer30.35 in30.44 in (9:00 pm)30.19 in (1:00 am)
Wind Speed7.5 mph15 mph (4:00 pm)
Wind Gust20.7 mph (1:00 pm)
Weather ElementAverage
Wind DirectionNW (310.7 °)

Weather ElementTotal
Precipitation---
Heating Degree Days38.1 (Base 65)
Averaged from 27 records on November 12, 2013
WEATHER CONDITIONS BREAKOUT
WIND DIRECTION BREAKOUT
WEATHER BY HOUR - NOVEMBER 12, 2013
[ °C ]   °F
Local TimeTemperatureDewpointHumidityBarometerVisibilityWind DirectionWind SpeedGust SpeedPrecipitationEventsConditions
1:00 AM28.0 °F22.0 °F72 %30.19 inWNW (300°)5.8 mph
1:00 AM28.0 °F22.5 °F80 %30.19 inWNW (300°)5.8 mph
2:00 AM27.1 °F23.0 °F84 %30.21 inNW (310°)4.6 mph
3:00 AM26.2 °F21.9 °F84 %30.23 inNNW (330°)6.9 mph
4:00 AM25.9 °F18.9 °F75 %30.25 inNW (320°)5.8 mph
5:00 AM23.7 °F16.9 °F75 %30.28 inNW (320°)4.6 mph
6:00 AM23.0 °F16.9 °F77 %30.31 inNW (320°)5.8 mph
7:00 AM22.0 °F16.0 °F70 %30.34 inNW (310°)4.6 mph
7:00 AM22.1 °F16.3 °F79 %30.34 inNW (310°)4.6 mph
8:00 AM23.2 °F17.2 °F78 %30.36 inNW (310°)4.6 mph
9:00 AM25.9 °F19.4 °F76 %30.38 inNNW (330°)8.1 mph
10:00 AM28.4 °F21.0 °F74 %30.39 inNNW (330°)9.2 mph
11:00 AM30.2 °F21.4 °F70 %30.39 inNNW (340°)12.7 mph18.4 mph
12:00 PM31.8 °F21.9 °F67 %30.38 inNNW (340°)11.5 mph18.4 mph
1:00 PM31.0 °F20.0 °F51 %30.38 inNW (310°)13.8 mph
1:00 PM31.5 °F19.9 °F62 %30.38 inNW (310°)13.8 mph20.7 mph
2:00 PM31.5 °F22.8 °F70 %30.38 inWNW (300°)9.2 mph
3:00 PM30.7 °F21.2 °F68 %30.38 inNW (310°)10.4 mph19.6 mph
4:00 PM29.5 °F21.2 °F71 %30.40 inNW (310°)15.0 mph
5:00 PM27.7 °F20.5 °F74 %30.40 inWNW (300°)10.4 mph
6:00 PM27.1 °F22.5 °F83 %30.41 inNW (310°)8.1 mph
7:00 PM27.0 °F22.0 °F75 %30.43 inNW (310°)4.6 mph
7:00 PM26.8 °F22.3 °F83 %30.43 inNW (310°)4.6 mph
8:00 PM26.6 °F23.0 °F86 %30.43 inWNW (290°)4.6 mph
9:00 PM26.4 °F21.9 °F83 %30.44 inWNW (290°)4.6 mph
10:00 PM26.2 °F22.3 °F85 %30.44 inWNW (290°)3.5 mph
11:00 PM26.1 °F21.7 °F84 %30.43 inWest (280°)4.6 mph
Hourly data recorded from CXDI, located miles away from Brantford, Ontario







STORIES FROM OUR PARTNERS